Regional Weather Roundup
Issued by NWS Raleigh/Durham, NC

Home | Current Version | Previous Version | Text Only | Print | Product List | Glossary On
Versions: 1 2 3 4 5 6 7 8 9 10 11 12 13 14 15 16 17 18 19 20 21 22 23 24 25 26 27 28 29 30 31 32 33 34 35 36 37 38 39 40 41 42 43 44 45 46 47 48 49 50
000
ASUS42 KRAH 271710
RWRRAH
NORTH CAROLINA WEATHER ROUNDUP
NATIONAL WEATHER SERVICE RALEIGH NC
1200 PM EST THU NOV 27 2014

NOTE: "FAIR" INDICATES FEW OR NO CLOUDS BELOW 12,000 FEET WITH NO
SIGNIFICANT WEATHER AND/OR OBSTRUCTIONS TO VISIBILITY.

NCZ001-053-055-056-065-067-271800-
WESTERN NORTH CAROLINA

CITY           SKY/WX    TMP DP  RH WIND       PRES   REMARKS
ASHEVILLE      CLOUDY    39  30  70 N17G26    30.15R WCI  30
JEFFERSON      LGT SNOW  32  25  74 NW14G21   30.04S WCI  22
MORGANTON      CLOUDY    47  31  55 W6        30.16R
HICKORY        CLOUDY    45  31  58 N7        30.10R
RUTHERFORDTON  MOSUNNY   48  29  46 W15G24    30.12S
MOUNT AIRY     CLOUDY    44  33  65 NW8       30.09S
BOONE          FLURRIES  32  26  77 NW8       30.06R WCI  25
$$

NCZ021-022-025-041-071-084-088-271800-
CENTRAL NORTH CAROLINA

CITY           SKY/WX    TMP DP  RH WIND       PRES   REMARKS
CHARLOTTE      PTSUNNY   50  28  42 NW15      30.10S
GREENSBORO     CLOUDY    45  37  76 NW12      30.07R
WINSTON-SALEM  CLOUDY    44  36  73 NW10      30.08S
RALEIGH-DURHAM LGT RAIN  42  38  85 CALM      30.05S
FORT BRAGG     PTSUNNY   52  41  64 NW14      30.02S
FAYETTEVILLE   MOSUNNY   52  39  61 W9G20     30.02F
BURLINGTON     CLOUDY    41  37  86 W5        30.07S
LAURINBURG     PTSUNNY   51  38  60 NW14G23   30.06R
$$

NCZ011-015-027-028-043-044-047-080-103-271800-
NORTHEASTERN NORTH CAROLINA

CITY           SKY/WX    TMP DP  RH WIND       PRES   REMARKS
ROCKY MT-WILSO PTSUNNY   49  42  77 NW9       30.01F
GREENVILLE     MOSUNNY   52  43  71 CALM      30.00F
WASHINGTON     MOSUNNY   50  42  74 N3        29.98F
ELIZABETH CITY CLOUDY    49  40  71 E5        30.01F
MANTEO         CLOUDY    48  41  75 E5        30.00F
CAPE HATTERAS  PTSUNNY   54  46  74 VRB5      29.97F
$$

NCZ078-087-090-091-093-098-101-271800-
SOUTHEASTERN NORTH CAROLINA

CITY           SKY/WX    TMP DP  RH WIND       PRES   REMARKS
LUMBERTON      SUNNY     53  39  59 W15G22    30.04S
GOLDSBORO      MOSUNNY   49  46  89 W2        29.99S
KINSTON        MOSUNNY   52  41  66 W7        30.00F
KENANSVILLE    SUNNY     50  38  65 W12       30.01F
NEW BERN       SUNNY     56  40  55 W10       29.98F
CHERRY POINT   SUNNY     57  37  47 SW16      29.97F
BEAUFORT       SUNNY     56  39  53 W14G22    29.96F
JACKSONVILLE   SUNNY     53  39  59 W14       29.98F
WILMINGTON     SUNNY     54  38  54 W17       30.01F
$$




USA.gov is the U.S. government's official web portal to all federal, state and local government web resources and services.